GEC8461 EDDF-EGLL

Flight info

Callsign GEC8461
Flight time N/A
Altitude 32000
Route OBOKA5G/25C OBOKA Z29 TORNU DCT ABNED L980 LOGAN
Aircraft B77L/H-SDE1E2E3FGHIJ2J3J4J5M1RWXY/LB1D1

Departure

Time N/A
Airport Frankfurt Main Airport (EDDF)

Arrival

Time 2026-05-03 20:55
Airport London Heathrow Airport (EGLL)
Time Latitude Longitude Altitude Speed Heading
2026-05-03 20:15 51.31997 5.31107 31930 ft 444 kts 287°
2026-05-03 20:15 51.34355 5.21993 31954 ft 443 kts 287°
2026-05-03 20:16 51.36693 5.12925 31941 ft 443 kts 287°
2026-05-03 20:16 51.39036 5.03796 31939 ft 443 kts 287°
2026-05-03 20:17 51.41355 4.94732 31942 ft 443 kts 287°
2026-05-03 20:17 51.43686 4.85580 31944 ft 444 kts 287°
2026-05-03 20:18 51.46012 4.76410 31962 ft 444 kts 286°
2026-05-03 20:18 51.48320 4.67273 31951 ft 445 kts 286°
2026-05-03 20:19 51.50644 4.58038 31939 ft 445 kts 286°
2026-05-03 20:19 51.52959 4.48799 31938 ft 445 kts 286°
2026-05-03 20:20 51.55251 4.39617 31939 ft 445 kts 286°
2026-05-03 20:20 51.57547 4.30377 31937 ft 445 kts 286°
2026-05-03 20:21 51.59838 4.21120 31930 ft 445 kts 286°
2026-05-03 20:21 51.62108 4.11909 31930 ft 445 kts 286°
2026-05-03 20:22 51.64380 4.02649 31927 ft 445 kts 286°
2026-05-03 20:22 51.66625 3.93462 31920 ft 444 kts 286°
2026-05-03 20:23 51.68883 3.84186 31931 ft 445 kts 286°
2026-05-03 20:23 51.71136 3.74886 31919 ft 446 kts 285°
2026-05-03 20:24 51.73372 3.65619 31918 ft 446 kts 285°
2026-05-03 20:24 51.75615 3.56282 31927 ft 446 kts 285°
2026-05-03 20:25 51.77859 3.46903 31921 ft 447 kts 285°
2026-05-03 20:25 51.80090 3.37536 31934 ft 447 kts 285°
2026-05-03 20:26 51.82306 3.28195 31919 ft 448 kts 285°
2026-05-03 20:26 51.84135 3.18625 31913 ft 441 kts 274°
2026-05-03 20:27 51.84447 3.08834 31916 ft 433 kts 261°
2026-05-03 20:27 51.83799 2.99252 31921 ft 432 kts 259°
2026-05-03 20:28 51.83126 2.89653 31934 ft 433 kts 259°
2026-05-03 20:28 51.82480 2.79952 31916 ft 433 kts 260°
2026-05-03 20:29 51.81858 2.70488 31789 ft 413 kts 259°
2026-05-03 20:29 51.81251 2.61483 31623 ft 393 kts 259°
2026-05-03 20:29 51.80950 2.57113 31433 ft 387 kts 259°
2026-05-03 20:30 51.80650 2.52804 31125 ft 385 kts 259°
2026-05-03 20:30 51.80350 2.48515 30760 ft 384 kts 258°
2026-05-03 20:30 51.80054 2.44296 30423 ft 382 kts 258°
2026-05-03 20:30 51.79754 2.40039 30117 ft 380 kts 258°
2026-05-03 20:31 51.79453 2.35773 29706 ft 380 kts 258°
2026-05-03 20:31 51.79154 2.31543 29331 ft 378 kts 259°
2026-05-03 20:31 51.78855 2.27339 28982 ft 376 kts 259°
2026-05-03 20:31 51.78555 2.23156 28655 ft 373 kts 258°
2026-05-03 20:32 51.78278 2.18991 28327 ft 372 kts 259°
2026-05-03 20:32 51.78033 2.14837 27975 ft 370 kts 260°
2026-05-03 20:32 51.77801 2.10757 27632 ft 369 kts 260°
2026-05-03 20:32 51.77565 2.06638 27305 ft 367 kts 260°
2026-05-03 20:33 51.77327 2.02534 26981 ft 365 kts 260°
2026-05-03 20:33 51.77090 1.98513 26672 ft 364 kts 260°
2026-05-03 20:33 51.76848 1.94456 26362 ft 362 kts 260°
2026-05-03 20:33 51.76605 1.90417 26037 ft 362 kts 261°
2026-05-03 20:34 51.76362 1.86430 25683 ft 362 kts 261°
2026-05-03 20:34 51.76116 1.82390 25383 ft 360 kts 261°
2026-05-03 20:34 51.75869 1.78379 25111 ft 358 kts 261°
2026-05-03 20:34 51.75624 1.74394 24981 ft 353 kts 261°
2026-05-03 20:35 51.75381 1.70461 24932 ft 352 kts 261°
2026-05-03 20:35 51.75135 1.66520 24918 ft 354 kts 261°
2026-05-03 20:35 51.74883 1.62539 24917 ft 358 kts 261°
2026-05-03 20:35 51.74628 1.58519 24559 ft 366 kts 261°
2026-05-03 20:36 51.74360 1.54391 23989 ft 371 kts 261°
2026-05-03 20:36 51.74090 1.50229 23427 ft 373 kts 262°
2026-05-03 20:36 51.73822 1.46099 22781 ft 375 kts 262°
2026-05-03 20:36 51.73549 1.41915 22210 ft 375 kts 261°
2026-05-03 20:37 51.73274 1.37722 21633 ft 376 kts 261°
2026-05-03 20:37 51.72998 1.33532 21069 ft 375 kts 261°
2026-05-03 20:37 51.72720 1.29344 20509 ft 374 kts 261°
2026-05-03 20:37 51.72448 1.25245 19943 ft 361 kts 261°
2026-05-03 20:38 51.72184 1.21286 19417 ft 348 kts 261°
2026-05-03 20:38 51.71923 1.17408 18927 ft 348 kts 261°
2026-05-03 20:38 51.71658 1.13521 18423 ft 349 kts 261°
2026-05-03 20:38 51.71391 1.09614 17870 ft 351 kts 262°
2026-05-03 20:39 51.71125 1.05714 17291 ft 345 kts 262°
2026-05-03 20:39 51.70872 1.01997 16764 ft 330 kts 261°
2026-05-03 20:39 51.70626 0.98430 16315 ft 325 kts 261°
2026-05-03 20:39 51.70455 0.95988 16050 ft 323 kts 262°
2026-05-03 20:40 51.70123 0.91216 15920 ft 322 kts 262°
2026-05-03 20:40 51.69873 0.87624 15918 ft 323 kts 262°
2026-05-03 20:40 51.69624 0.84052 15895 ft 320 kts 262°
2026-05-03 20:40 51.69381 0.80570 15670 ft 309 kts 262°
2026-05-03 20:41 51.69145 0.77188 15218 ft 299 kts 261°
2026-05-03 20:41 51.68911 0.73883 14594 ft 295 kts 261°
2026-05-03 20:41 51.68677 0.70592 13962 ft 294 kts 261°
2026-05-03 20:41 51.68444 0.67332 13310 ft 291 kts 261°
2026-05-03 20:42 51.68213 0.64102 12615 ft 289 kts 262°
2026-05-03 20:42 51.67982 0.60896 11916 ft 287 kts 262°
2026-05-03 20:42 51.67751 0.57675 11358 ft 291 kts 262°
2026-05-03 20:42 51.67518 0.54454 11040 ft 286 kts 262°
2026-05-03 20:43 51.67288 0.51286 10710 ft 284 kts 262°
2026-05-03 20:43 51.67060 0.48165 10322 ft 283 kts 262°
2026-05-03 20:43 51.66829 0.45017 9946 ft 282 kts 262°
2026-05-03 20:43 51.66598 0.41885 9553 ft 281 kts 262°
2026-05-03 20:44 51.66368 0.38771 9175 ft 279 kts 262°
2026-05-03 20:44 51.66217 0.36728 9019 ft 274 kts 262°
2026-05-03 20:44 51.65993 0.33704 8762 ft 268 kts 262°
2026-05-03 20:44 51.65773 0.30740 8411 ft 265 kts 262°
2026-05-03 20:45 51.65553 0.27795 8005 ft 265 kts 262°
2026-05-03 20:45 51.65262 0.23899 7472 ft 264 kts 262°
2026-05-03 20:45 51.65042 0.20976 7107 ft 262 kts 262°
2026-05-03 20:45 51.64894 0.19020 7000 ft 256 kts 262°
2026-05-03 20:46 51.64683 0.16242 6977 ft 243 kts 261°
2026-05-03 20:46 51.64140 0.13711 7012 ft 242 kts 234°
2026-05-03 20:46 51.63056 0.11675 6960 ft 243 kts 225°
2026-05-03 20:46 51.61845 0.09755 6694 ft 244 kts 223°
2026-05-03 20:47 51.60639 0.07884 6433 ft 237 kts 223°
2026-05-03 20:47 51.59481 0.06095 6030 ft 227 kts 223°
2026-05-03 20:47 51.58355 0.04360 5542 ft 222 kts 223°
2026-05-03 20:47 51.57247 0.02663 5022 ft 219 kts 223°
2026-05-03 20:48 51.56143 0.00985 4465 ft 223 kts 223°
2026-05-03 20:48 51.55044 -0.00675 4126 ft 220 kts 223°
2026-05-03 20:48 51.53931 -0.02353 3727 ft 219 kts 223°
2026-05-03 20:48 51.52818 -0.04029 3345 ft 219 kts 223°
2026-05-03 20:49 51.51720 -0.05676 3132 ft 212 kts 223°
2026-05-03 20:49 51.50642 -0.07286 3070 ft 214 kts 223°
2026-05-03 20:49 51.49538 -0.08930 3034 ft 219 kts 223°
2026-05-03 20:49 51.48491 -0.10596 2983 ft 202 kts 235°
2026-05-03 20:50 51.48071 -0.12613 2988 ft 188 kts 264°
2026-05-03 20:50 51.47933 -0.14726 2995 ft 190 kts 265°
2026-05-03 20:50 51.47867 -0.16824 2992 ft 184 kts 268°
2026-05-03 20:50 51.47845 -0.18845 2987 ft 178 kts 269°
2026-05-03 20:51 51.47836 -0.20788 2852 ft 171 kts 270°
2026-05-03 20:51 51.47831 -0.22631 2644 ft 164 kts 270°
2026-05-03 20:51 51.47825 -0.24441 2419 ft 158 kts 270°
2026-05-03 20:51 51.47820 -0.26162 2194 ft 150 kts 270°
2026-05-03 20:52 51.47815 -0.27821 2003 ft 149 kts 270°
2026-05-03 20:52 51.47810 -0.29483 1809 ft 149 kts 270°
2026-05-03 20:52 51.47804 -0.31145 1609 ft 149 kts 270°
2026-05-03 20:52 51.47799 -0.32805 1399 ft 149 kts 270°
2026-05-03 20:53 51.47794 -0.34457 1200 ft 148 kts 269°
2026-05-03 20:53 51.47789 -0.36107 1002 ft 148 kts 269°
2026-05-03 20:53 51.47784 -0.37766 805 ft 149 kts 269°
2026-05-03 20:53 51.47778 -0.39409 618 ft 149 kts 269°
2026-05-03 20:54 51.47770 -0.41073 405 ft 148 kts 268°
2026-05-03 20:54 51.47766 -0.44353 97 ft 142 kts 269°
2026-05-03 20:54 51.47759 -0.45758 91 ft 102 kts 270°
2026-05-03 20:55 51.47757 -0.46601 97 ft 49 kts 270°
2026-05-03 20:55 51.47757 -0.46858 96 ft 1 kts 270°
2026-05-03 20:55 51.47757 -0.47002 95 ft 21 kts 270°
2026-05-03 20:55 51.47674 -0.47079 93 ft 14 kts 145°
2026-05-03 20:56 51.47611 -0.47011 96 ft 10 kts 144°
2026-05-03 20:56 51.47555 -0.46937 95 ft 10 kts 142°
2026-05-03 20:56 51.47485 -0.46902 94 ft 11 kts 167°
2026-05-03 20:56 51.47414 -0.46879 94 ft 11 kts 168°
2026-05-03 20:57 51.47342 -0.46867 92 ft 11 kts 178°
2026-05-03 20:57 51.47269 -0.46866 93 ft 11 kts 179°
2026-05-03 20:57 51.47195 -0.46865 91 ft 11 kts 179°
2026-05-03 20:57 51.47122 -0.46864 91 ft 11 kts 179°
2026-05-03 20:58 51.47049 -0.46863 91 ft 11 kts 179°
2026-05-03 20:58 51.46976 -0.46862 91 ft 11 kts 179°
2026-05-03 20:58 51.46902 -0.46861 93 ft 11 kts 179°
2026-05-03 20:58 51.46829 -0.46860 93 ft 11 kts 179°
2026-05-03 20:59 51.46756 -0.46859 91 ft 11 kts 179°
2026-05-03 20:59 51.46684 -0.46863 92 ft 11 kts 196°
2026-05-03 20:59 51.46657 -0.46965 94 ft 11 kts 267°
2026-05-03 20:59 51.46653 -0.47083 91 ft 11 kts 267°
2026-05-03 21:00 51.46655 -0.47202 93 ft 11 kts 272°
2026-05-03 21:00 51.46656 -0.47280 93 ft 11 kts 270°
2026-05-03 21:00 51.46651 -0.47439 93 ft 11 kts 250°
2026-05-03 21:00 51.46589 -0.47496 92 ft 11 kts 183°
2026-05-03 21:01 51.46513 -0.47489 93 ft 11 kts 176°
2026-05-03 21:01 51.46434 -0.47491 94 ft 11 kts 181°
2026-05-03 21:01 51.46373 -0.47487 94 ft 7 kts 166°
2026-05-03 21:01 51.46342 -0.47430 95 ft 7 kts 110°
2026-05-03 21:02 51.46325 -0.47346 97 ft 11 kts 102°
2026-05-03 21:02 51.46322 -0.47205 91 ft 14 kts 89°
2026-05-03 21:02 51.46323 -0.47051 91 ft 14 kts 90°
2026-05-03 21:02 51.46322 -0.46897 91 ft 14 kts 90°
2026-05-03 21:03 51.46322 -0.46758 91 ft 11 kts 90°
2026-05-03 21:03 51.46322 -0.46640 91 ft 11 kts 90°
2026-05-03 21:03 51.46320 -0.46531 91 ft 7 kts 98°
2026-05-03 21:03 51.46309 -0.46509 93 ft 4 kts 148°
2026-05-03 21:04 51.46276 -0.46499 93 ft 5 kts 174°
2026-05-03 21:04 51.46240 -0.46498 94 ft 5 kts 179°
2026-05-03 21:04 51.46220 -0.46497 94 ft 3 kts 179°
2026-05-03 21:04 51.46198 -0.46497 94 ft 3 kts 179°
2026-05-03 21:05 51.46192 -0.46497 94 ft 0 kts 180°